User: anonymous   Login
Location: Sungai Bunut
(2.6333°N, 113.7333°E)
Time: 16:00:47
(UTC+00:00)
Language:

Cosmos 2360 - Orbit

View from above orbital plane
View from above orbital plane
View from above satellite
View from above satellite

Ground track
Ground track

The orbit data is extracted from the following two-line orbital elements,

1 25406U 98045A   22022.08482349 -.00000056  00000-0 -38020-5 0  9990
2 25406  70.8471  74.6780 0009127 219.7301 140.3152 14.12554858211328
Epoch (UTC): 22 January 2022 02:02:08
Eccentricity: 0.0009127
inclination: 70.8471°
perigee height: 844 km
apogee height: 857 km
right ascension of ascending node: 74.6780°
argument of perigee: 219.7301°
revolutions per day: 14.12554858
mean anomaly at epoch: 140.3152°
orbit number at epoch: 21132

The dashed part of the orbit path shows where the satellite is in the earth's shadow,  

DLR